Location: Pel�-Koumbol�
(14.9505°N, 3.0798°W)
Time: 07:53:53
(UTC+00:00)

EXPRESS MD2 - Pass Details

Date: 17 February 2020
Orbit: 261 x 4038 km, 49.9° (Epoch: 06 April)

Event Time Altitude Azimuth Distance (km) Brightness Sun altitude
Exits shadow 05:47:11 21° 324° (NW) 680 3.4 -12.4°
Maximum altitude 05:48:28 81° 51° (NE) 264 1.7 -12.1°
Drops below altitude 10° 05:50:37 10° 138° (SE) 1,082 5.6 -11.6°
Sets 05:52:37 0° 140° (SE) 2,036 7.1 -11.1°
